Regional Weather Roundup
Issued by NWS

Home | Current Version | Previous Version | Graphics & Text | Print | Product List | Glossary On
Versions: 1 2 3 4 5 6 7 8 9 10 11 12 13 14 15 16 17 18 19 20 21 22 23 24 25 26 27 28 29 30 31 32 33 34 35 36 37 38 39 40 41 42 43 44 45 46 47 48 49 50
000
ASUS43 KTOP 250708
RWRKS

WEATHER ROUNDUP FOR KANSAS
NATIONAL WEATHER SERVICE GOODLAND KS
200 AM CDT FRI JUL 25 2014

NOTE:  "FAIR" INDICATES FEW OR NO CLOUDS BELOW 12,000 FEET WITH NO
SIGNIFICANT WEATHER AND/OR OBSTRUCTIONS TO VISIBILITY.

KSZ001>006-013>018-027>032-041>047-250800-
NORTHWEST KANSAS

CITY           SKY/WX    TMP DP  RH WIND       PRES   REMARKS
GOODLAND       CLOUDY    76  56  49 S8        29.92F
HAYS           PTCLDY    61  61 100 S16       29.88S
HILL CITY      MOCLDY    86  65  49 S18G24    29.85S
RUSSELL        CLEAR     81  69  67 S20G28    29.86F
$$

KSZ061>065-074>080-084>089-250800-
SOUTHWEST KANSAS

CITY           SKY/WX    TMP DP  RH WIND       PRES   REMARKS
DODGE CITY     CLEAR     77  64  64 S9        29.96R
ELKHART          N/A     77  56  48 S14         N/A
GARDEN CITY    CLEAR     79  62  56 S15       29.94S
GREAT BEND     CLEAR     81  68  65 S20       29.89F
LIBERAL        CLEAR     81  61  50 S16       30.00S
PRATT          CLEAR     77  68  73 S13       29.97S
$$

KSZ066>073-081>083-090>101-250800-
SOUTHEAST KANSAS

CITY           SKY/WX    TMP DP  RH WIND       PRES   REMARKS
CHANUTE        PTCLDY    71  68  90 S8        29.97F
COFFEYVILLE    MOCLDY    74  71  91 SE7       29.99S
HUTCHINSON     PTCLDY    79  70  74 S14       29.93F
MEDICINE LODGE   N/A     79  72  79 S8        29.94F
NEWTON         PTCLDY    75  66  73 S12       29.99S
PARSONS        MOCLDY    73  69  87 CALM      30.00F
WICHITA INTL   PTCLDY    78  71  79 S14       29.95S
WICHITA JABRA  CLEAR     76  72  87 S13       29.95F
WICHITA MCCONL CLEAR     77  75  94 SE14      29.96F
WINFIELD       CLEAR     76  73  91 SE9       29.98R
$$

KSZ007>012-019>026-033>040-048>060-102>105-250800-
NORTHEAST KANSAS

CITY           SKY/WX    TMP DP  RH WIND       PRES   REMARKS
CONCORDIA      CLOUDY    77  69  76 S13       29.87F
EMPORIA        PTCLDY    74  68  81 S15       29.95F
LAWRENCE       PTCLDY    69  60  73 SE8       29.94F
MANHATTAN      CLOUDY    79  68  69 S13       29.88F
MARYSVILLE     CLOUDY    73  64  73 S10G17    29.88F
OLATHE IND     PTCLDY    71  58  63 S14       29.95F
OLATHE EXE     PTCLDY    68  59  73 S8        29.95F
SALINA         PTCLDY    81  69  67 S18G28    29.88F
TOPEKA BILLARD MOCLDY    75  60  59 SE7       29.93F
TOPEKA FORBES  MOCLDY    74  61  63 S12       29.92F
$$


USA.gov is the U.S. government's official web portal to all federal, state and local government web resources and services.